Location: Hutchins
(43.0916°N, 93.8811°W)
Time: 17:18:25
(UTC+00:00)

ARIANE 6 FM1 Upper Stage - Visible Passes

Search period start: 18 January 2026 00:00
Search period end: 28 January 2026 00:00
Orbit: 522 x 610 km, 62.0° (Epoch: 17 January)

Date Brightness Start Highest point End Pass type
(mag) Time Alt. Az. Time Alt. Az. Time Alt. Az.
19 Jan 5.2 01:34:40 10° S 01:34:58 12° S 01:34:58 12° S visible
20 Jan 4.5 01:34:33 10° SSW 01:36:04 21° SSW 01:36:04 21° SSW visible
21 Jan 3.8 01:34:36 10° SW 01:37:07 36° SSW 01:37:07 36° SSW visible
21 Jan 4.6 23:58:27 10° SE 00:00:21 13° ESE 00:02:00 11° E visible
22 Jan 3.3 01:34:49 10° SW 01:38:04 51° WSW 01:38:04 51° WSW visible
22 Jan 4.2 23:57:24 10° SSE 00:00:22 19° ESE 00:02:53 12° ENE visible
23 Jan 3.5 01:35:10 10° WSW 01:38:56 45° NW 01:38:56 45° NW visible
23 Jan 3.7 23:56:53 10° S 00:00:24 28° ESE 00:03:39 11° ENE visible
24 Jan 4.0 01:35:40 10° WSW 01:39:21 32° NW 01:39:42 32° NNW visible
24 Jan 3.1 23:56:37 10° SSW 00:00:30 42° ESE 00:04:19 10° NE visible
25 Jan 4.4 01:36:19 10° W 01:39:39 24° NW 01:40:23 23° NNW visible
25 Jan 2.6 23:56:33 10° SSW 00:00:36 65° SE 00:04:35 10° NE visible
26 Jan 4.8 01:37:06 10° W 01:39:59 18° NW 01:40:58 17° NNW visible
26 Jan 2.6 23:56:39 10° SW 00:00:45 84° NW 00:04:46 10° NE visible
27 Jan 5.1 01:38:06 10° WNW 01:40:21 14° NNW 01:41:30 13° NNW visible
